Regional Weather Roundup
Issued by NWS Green Bay, WI

Home | Current Version | Previous Version | Text Only | Print | Product List | Glossary On
Versions: 1 2 3 4 5 6 7 8 9 10 11 12 13 14 15 16 17 18 19 20 21 22 23 24 25 26 27 28 29 30 31 32 33 34 35 36 37 38 39 40 41 42 43 44 45 46 47 48 49 50
000
ASUS43 KGRB 221459
RWRGRB

NORTH-CENTRAL AND NORTHEAST WISCONSIN REGIONAL WEATHER ROUNDUP
NATIONAL WEATHER SERVICE GREEN BAY WI
900 AM CST SUN JAN 22 2017

WIZ005-009-010>012-018-019-221600-
NORTH CENTRAL WISCONSIN

CITY           SKY/WX    TMP DP  RH WIND       PRES   REMARKS
IRONWOOD       FOG       33  33 100 W7        29.62R VSB<1/4
MANITOWISH WTR NOT AVBL
ARBOR VITAE    NOT AVBL
EAGLE RIVER    NOT AVBL
LAND O LAKES   NOT AVBL
RHINELANDER    FOG       36  35  96 N3        29.59R VSB 1/4
PHILLIPS       FOG       33  33 100 CALM      29.59R VSB 1
ANTIGO         NOT AVBL
TOMAHAWK       NOT AVBL
MERRILL        CLOUDY    34  34 100 CALM        N/A  FOG
$$

WIZ013-073-221600-
NORTHEAST WISCONSIN

CITY           SKY/WX    TMP DP  RH WIND       PRES   REMARKS
IRON MOUNTAIN  CLOUDY    33  31  92 CALM      29.60R FOG
MARINETTE      NOT AVBL
$$

WIZ017-030-035>037-045-221600-
CENTRAL WISCONSIN

CITY           SKY/WX    TMP DP  RH WIND       PRES   REMARKS
MEDFORD        NOT AVBL
WAUSAU         CLOUDY    34  34 100 NW3       29.59R FOG
MOSINEE        FOG       34  34 100 CALM      29.61R VSB 1/4
MARSHFIELD     FOG       34  33  96 NW5       29.60R VSB 1/4
WISC RAPIDS    CLOUDY    36  36 100 NW3       29.63R FOG
STEVENS POINT  NOT AVBL
WAUPACA        NOT AVBL
SHAWANO        NOT AVBL
CLINTONVILLE   FOG       34  34 100 CALM      29.62R VSB 1/4
WAUTOMA        FOG       35  34  96 CALM      29.65R VSB 1/4
$$

WIZ038-039-048-051-221600-
FOX VALLEY

CITY           SKY/WX    TMP DP  RH WIND       PRES   REMARKS
NWS GREEN BAY  FOG       37  37 100 S5        29.63R VSB 1/4
APPLETON       FOG       36  36 100 VRB5      29.61R VSB 1/8
OSHKOSH        FOG       36  36 100 CALM      29.64R VSB<1/4
FOND DU LAC    FOG       36  34  92 CALM      29.64R VSB 1/4
$$

WIZ022-050-052-221600-
EAST CENTRAL WISCONSIN

CITY           SKY/WX    TMP DP  RH WIND       PRES   REMARKS
EPHRAIM        NOT AVBL
WASHINGTON ISL NOT AVBL
STURGEON BAY   FOG       37  37 100 CALM      29.63R VSB 1/4
MANITOWOC      CLOUDY    37  37 100 SW5       29.64R FOG
SHEBOYGAN      CLOUDY    37  36  96 W3        29.64R FOG
$$

LMZ563-521-522-541>543-221600-
LAKESHORE

STATION/POSITION TIME  TEMP    WIND        PRES    VSBY  WAVE
                       AIR SEA DIR/SP/G                  HT/PER
                 (UTC) (F)     (DEG/KT/KT) (MB)    (MI)  (FT/S)
SHEBOYGAN LKSHOR 1400   40     260/  5/  6 1003.2R
KEWAUNEE LKSHORE 1430   38      CALM  /  3 1002.6R
NORTHPORT PIER   1440   34        CALM     1003.0R
SISTER BAY LKSHO 1405   36        CALM       N/A
MENOMINEE LKSHOR 1430          360/  2/  2 1002.2R
$$



USA.gov is the U.S. government's official web portal to all federal, state and local government web resources and services.